Regional Weather Roundup
Issued by NWS San Diego, CA

Home | Current Version | Previous Version | Text Only | Print | Product List | Glossary On
Versions: 1 2 3 4 5 6 7 8 9 10 11 12 13 14 15 16 17 18 19 20 21 22 23 24 25 26 27 28 29 30 31 32 33 34 35 36 37 38 39 40 41 42 43 44 45 46 47 48 49 50
000
ASUS46 KSGX 281611
RWRSGX

SAN DIEGO HOURLY WEATHER ROUNDUP
NATIONAL WEATHER SERVICE SAN DIEGO CA
900 AM PDT SAT MAR 28 2015

NOTE: "FAIR" INDICATES FEW OR NO CLOUDS BELOW 12,000 FEET WITH NO
SIGNIFICANT WEATHER AND/OR OBSTRUCTIONS TO VISIBILITY.

CAZ042-043-060-061-PZZ750-775-281700-

GREATER SAN DIEGO AREA

CITY           SKY/WX    TMP DP  RH WIND       PRES   REMARKS
LINDBERGH FLD  MOSUNNY   65  53  65 CALM      30.08F
POINT LOMA       N/A     64  58  80 E2          N/A
CHULA VISTA      N/A     64  57  79 CALM      30.00S
IMPERIAL BEACH SUNNY     66  56  70 N6        30.07F
BROWN FIELD    SUNNY     65  52  62 SE5       30.07S
MIRAMAR MCAS   SUNNY     65  52  62 CALM      30.07S
MONTGOMERY FLD SUNNY     64  54  69 CALM      30.08R

$$

NORTH SAN DIEGO COUNTY

CITY           SKY/WX    TMP DP  RH WIND       PRES   REMARKS
CAMP PENDLETON SUNNY     60  45  57 CALM      30.08R
OCEANSIDE AP   SUNNY     62  45  53 NE5       30.07R
VISTA            N/A     55  49  82 CALM      30.06R
CARLSBAD       SUNNY     63  54  72 CALM      30.07R
FALLBROOK        N/A     65  53  63 CALM      30.07S
SAN MARCOS       N/A    N/A N/A N/A CALM      30.05R
POWAY            N/A     65  48  53 CALM      30.08R

$$

EAST SAN DIEGO COUNTY

CITY           SKY/WX    TMP DP  RH WIND       PRES   REMARKS
RAMONA         SUNNY     68  36  30 NE3       30.10R
SANTEE LAKES     N/A     63  48  58 CALM      30.07S
LA MESA          N/A     66  47  50 CALM      30.00S
DESCANSO N       N/A     71  36  28 CALM      29.99S
MT. LAGUNA OBS   N/A     62  13  14 NW2       29.83R
CAMPO            N/A     65  35  33 E5        30.12R

$$

ORANGE COUNTY AND THE LOS ANGELES BASIN

CITY           SKY/WX    TMP DP  RH WIND       PRES   REMARKS
JOHN WAYNE AP  MOSUNNY   61  56  83 S3        30.08R
LAKE FOREST FR   N/A     65  43  44 CALM      29.96S
SANTA ANA        N/A     62  58  86 CALM      30.02S
HUNTINGTON BCH   N/A     61  60  95 CALM      30.09R
LOS ALAMITOS   PTSUNNY   63  59  87 VRB2      30.08R
FULLERTON      SUNNY     65  54  67 CALM      30.07R
LONG BEACH     PTSUNNY   62  58  86 CALM      30.08R
L.A. AP        MOSUNNY   63  59  88 E5        30.08R FOG
L.A. DOWNTOWN  MOSUNNY   64  59  83 CALM      30.07R HAZE

$$

THE INLAND EMPIRE

CITY           SKY/WX    TMP DP  RH WIND       PRES   REMARKS
CORONA         SUNNY     63  44  49 CALM      30.09S
CHINO          SUNNY     65  45  48 CALM      30.10R
ONTARIO        SUNNY     69  36  29 SE5       30.09R
SAN BERNARDINO SUNNY     66  30  26 CALM      30.09S
RIVERSIDE AP   SUNNY     67  40  37 CALM      30.09S
MARCH ARB      SUNNY     64  37  35 CALM      30.10R
HORSETHIEF CYN   N/A     68  41  38 CALM      30.03S
MENIFEE          N/A     62  44  51 CALM      30.15S
HEMET EAST       N/A     71  30  22 CALM      30.04S
FRENCH VALLEY  FAIR      64  39  39 CALM      30.11R
TEMECULA         N/A     56  46  70 CALM      30.07R

$$

SAN BERNARDINO AND RIVERSIDE COUNTY MOUNTAINS

CITY           SKY/WX    TMP DP  RH WIND       PRES   REMARKS
BIG BEAR AP    SUNNY     46  32  57 W5        30.34R
ANGELUS OAKS     N/A     47  24  39 CALM      30.01F

$$

SOUTHERN DESERT INCLUDING THE COACHELLA VALLEY

CITY           SKY/WX    TMP DP  RH WIND       PRES   REMARKS
PALM SPRINGS   SUNNY     78  37  22 CALM      30.03S
THOUSAND PALMS   N/A     83  29  14 NW6       30.00R
THERMAL        SUNNY     75  42  30 CALM      29.99R
BLYTHE         SUNNY     69  36  29 E3        30.04R
IMPERIAL AP    SUNNY     76  41  28 CALM      29.99S
EL CENTRO NAS  SUNNY     78  35  21 SW6       30.00R
YUMA AZ        SUNNY     77  35  21 CALM      30.02R
MEXICALI       SUNNY     73  41  31 CALM      30.01R

$$

UPPER DESERT

CITY           SKY/WX    TMP DP  RH WIND       PRES   REMARKS
VICTORVILLE AP SUNNY     64  30  27 CALM      30.16S
HESPERIA         N/A     65  32  29 W2        30.18S
APPLE VALLEY     N/A     65  32  29 CALM      30.18F
PALMDALE       SUNNY     68  30  24 SE5       30.14S
LANCASTER      SUNNY     67  41  38 E5        30.13S
EDWARDS AFB    SUNNY     65  42  42 SW9       30.11S
DAGGETT        SUNNY     69  35  28 W10       30.12R
29 PALMS N     SUNNY     71  30  21 NW5       30.18R
NEEDLES        SUNNY     72  24  16 CALM      30.06R

$$

REGIONAL REPORTS

CITY           SKY/WX    TMP DP  RH WIND       PRES   REMARKS
SANTA BARBARA  SUNNY     63  55  75 SE8       30.07R
SANDBERG       SUNNY     65  35  33 N7        30.22R
MT. WILSON       N/A     63  14  15 MISG        N/A
LAS VEGAS NV   SUNNY     71  26  18 SW5       30.07R
PHOENIX AZ     SUNNY     73  31  21 E8        30.08R
TIJUANA        SUNNY     64  50  59 E5        30.10S
ENSENADA NW      N/A     65  32  28 SW1       30.04S

$$

OFFSHORE ISLANDS

CITY           SKY/WX    TMP DP  RH WIND       PRES   REMARKS
CATALINA ARPT  SUNNY     74  32  21 SW3       30.11R
SAN NICOLAS IS SUNNY    N/A N/A N/A NW12      30.08R

$$

MARINE AND OFFSHORE BUOY REPORTS

STATION/POSITION SKY/WX   TEMP    WIND        PRES    SWELL
                          AIR SEA DIR/SP/G            HT/PER/DIR
                          (F)     (DEG/KT/KT) (MB)    (FT/S/D)
TANNER BANKS                      320/ 12       N/A
S CLEMENTE BASIN           60 65   10/  2/  4 1018.2F   7/230/19
SAN NICOLAS IS.               60                N/A     7/290/13
SO. S. ROSA ISLA           57 59  330/ 17/ 21 1017.8R   7/14
W. S. BARBARA CH           54 58  320/ 21/ 23 1017.6R   7/290/13
S. MONICA BASIN            61 63  240/  2/  4 1018.5R   3/170/17
S PEDRO CHANNEL               63                N/A     2/200/13
DANA POINT                    65                N/A     3/190/18
CMP PENDLETON NS              65                N/A     3/220/18
OCEANSIDE OFFSHR              66                N/A     3/190/17
TORREY PINES OTR              66                N/A     3/200/18
MISSION BAY BUOY              66                N/A     3/200/18
SAN DIEGO BAY                 69              1018.7R
POINT LOMA SOUTH              66                N/A     3/190/18

$$



USA.gov is the U.S. government's official web portal to all federal, state and local government web resources and services.